N6OPV Weather Reports


time (UTC)temp
F
wind
direction
speed
knots
gust
knots
rain 1hr
in
rain 24hr
in
rain mn
in
humidity
%
barometer
mb
20260503211959 66 259 2.6 8.7 0.00 0.00 0.00 42 1012.6
20260503211458 67 253 1.7 8.7 0.00 0.00 0.00 41 1012.6
20260503210959 66 176 0.9 5.2 0.00 0.00 0.00 43 1012.5
20260503210459 65 282 1.7 7.0 0.00 0.00 0.00 44 1012.6
20260503205459 65 300 2.6 6.1 0.00 0.00 0.00 43 1012.9
20260503204959 65 314 2.6 7.0 0.00 0.00 0.00 42 1012.9
20260503204459 66 247 2.6 7.0 0.00 0.00 0.00 42 1012.8
20260503204001 66 345 2.6 7.8 0.00 0.00 0.00 43 1012.9
20260503203458 67 288 2.6 7.8 0.00 0.00 0.00 41 1013.0
20260503202958 67 255 2.6 7.8 0.00 0.00 0.00 42 1012.9
20260503201458 67 250 1.7 6.1 0.00 0.00 0.00 41 1013.0
20260503201000 67 250 1.7 6.1 0.00 0.00 0.00 42 1012.8
20260503200458 66 315 1.7 6.1 0.00 0.00 0.00 44 1012.8
20260503195458 65 334 1.7 3.5 0.00 0.00 0.00 43 1012.9
20260503194958 65 224 0.9 4.3 0.00 0.00 0.00 43 1013.0
20260503194500 65 77 0.9 4.3 0.00 0.00 0.00 43 1013.2
20260503193458 64 114 1.7 5.2 0.00 0.00 0.00 43 1013.1
20260503192958 65 295 0.9 5.2 0.00 0.00 0.00 43 1013.2
20260503192459 65 250 0.9 4.3 0.00 0.00 0.00 43 1013.1
20260503191959 65 261 0.0 1.7 0.00 0.00 0.00 45 1013.2
20260503191459 64 252 0.9 3.5 0.00 0.00 0.00 45 1013.2
20260503190958 64 252 0.9 4.3 0.00 0.00 0.00 44 1013.3
20260503185959 63 222 0.9 6.1 0.00 0.00 0.00 46 1013.4
20260503185458 64 179 0.9 6.1 0.00 0.00 0.00 46 1013.4
20260503184959 64 114 0.9 4.3 0.00 0.00 0.00 48 1013.5
20260503184459 63 250 0.9 4.3 0.00 0.00 0.00 49 1013.4
20260503183959 63 214 0.9 4.3 0.00 0.00 0.00 49 1013.5
20260503183459 62 327 0.9 2.6 0.00 0.00 0.00 53 1013.5
20260503182958 62 84 0.9 3.5 0.00 0.00 0.00 53 1013.7
20260503182459 62 333 0.9 3.5 0.00 0.00 0.00 53 1013.7
20260503181958 62 217 0.9 4.3 0.00 0.00 0.00 55 1013.7
20260503180959 61 225 0.9 3.5 0.00 0.00 0.00 55 1013.8
20260503180000 60 286 0.9 3.5 0.00 0.00 0.00 56 1013.8
20260503175459 60 309 1.7 3.5 0.00 0.00 0.00 58 1013.8
20260503174958 60 325 0.9 6.1 0.00 0.00 0.00 57 1013.7
20260503174500 60 62 0.9 4.3 0.00 0.00 0.00 59 1013.7
20260503174000 59 329 0.9 3.5 0.00 0.00 0.00 60 1013.8
20260503173459 59 313 0.9 3.5 0.00 0.00 0.00 60 1013.7
20260503172958 59 100 0.9 3.5 0.00 0.00 0.00 61 1013.8
20260503172459 59 314 1.7 3.5 0.00 0.00 0.00 61 1013.8
20260503171958 59 300 1.7 7.0 0.00 0.00 0.00 62 1013.8
20260503171458 58 14 0.9 7.0 0.00 0.00 0.00 63 1013.8
20260503170500 58 286 0.9 3.5 0.00 0.00 0.00 65 1013.7
20260503150958 55 243 0.0 2.6 0.00 0.00 0.00 68 1012.9
20260503150458 55 204 0.0 1.7 0.00 0.00 0.00 69 1013.0
20260503131000 53 272 0.0 0.0 0.00 0.00 0.00 68 1011.9
20260503110459 53 271 0.0 0.0 0.00 0.00 0.00 70 1011.6
20260503090459 54 238 0.0 0.9 0.00 0.00 0.00 71 1011.7
20260503081500 54 125 0.0 0.9 0.00 0.00 0.00 71 1012.1
20260503080459 54 210 0.0 0.9 0.00 0.00 0.00 72 1012.3
20260503071959 54 301 0.0 0.9 0.00 0.00 0.00 73 1012.1
20260503071500 54 301 0.0 0.9 0.00 0.00 0.00 73 1012.1
20260503071000 54 302 0.0 0.9 0.00 0.00 0.00 73 1012.1
20260503070459 54 293 0.0 0.9 0.00 0.00 0.00 73 1012.1
20260503055000 55 262 0.0 1.7 0.00 0.00 0.00 72 1011.5
20260503054500 55 335 0.0 2.6 0.00 0.00 0.00 71 1011.6
20260503054000 55 248 0.0 2.6 0.00 0.00 0.00 71 1011.6
20260503053501 55 210 0.0 1.7 0.00 0.00 0.00 70 1011.6
20260503052959 55 264 0.0 0.9 0.00 0.00 0.00 70 1011.5
20260503052501 55 300 0.9 1.7 0.00 0.00 0.00 70 1011.4
20260503052000 55 359 0.9 3.5 0.00 0.00 0.00 70 1011.4
20260503051501 55 354 0.9 3.5 0.00 0.00 0.00 70 1011.5
20260503051000 55 25 0.9 5.2 0.00 0.00 0.00 70 1011.4
20260503050459 55 316 0.9 4.3 0.00 0.00 0.00 70 1011.4
20260503045959 55 330 0.9 2.6 0.00 0.00 0.00 70 1011.4
20260503045459 55 323 0.0 2.6 0.00 0.00 0.00 70 1011.4
20260503044958 55 321 0.0 2.6 0.00 0.00 0.00 70 1011.4
20260503044458 55 322 0.0 2.6 0.00 0.00 0.00 70 1011.4
20260503044000 55 281 0.0 2.6 0.00 0.00 0.00 70 1011.3
20260503043459 55 350 0.0 1.7 0.00 0.00 0.00 70 1011.3
20260503042959 55 266 0.9 1.7 0.00 0.00 0.00 70 1011.3
20260503042500 55 4 0.9 3.5 0.00 0.00 0.00 70 1011.3
20260503041959 55 329 0.9 3.5 0.00 0.00 0.00 70 1011.2
20260503040458 55 342 0.9 2.6 0.00 0.00 0.00 70 1011.3
20260503035958 55 304 0.9 5.2 0.00 0.00 0.00 71 1011.1
20260503035459 55 339 1.7 5.2 0.00 0.00 0.00 71 1011.2
20260503034959 55 11 0.9 5.2 0.00 0.00 0.00 71 1011.1
20260503034459 55 329 0.9 5.2 0.00 0.00 0.00 71 1011.1
20260503034000 55 7 0.9 6.1 0.00 0.00 0.00 71 1011.1
20260503033459 55 323 1.7 7.0 0.00 0.00 0.00 70 1011.0
20260503032459 55 295 0.9 6.1 0.00 0.00 0.00 70 1011.1
20260503031504 55 29 0.9 5.2 0.00 0.00 0.00 69 1011.1
20260503031004 55 348 0.9 4.3 0.00 0.00 0.00 69 1011.0
20260503030504 55 331 0.9 5.2 0.00 0.00 0.00 69 1010.8
20260503030003 55 360 0.9 5.2 0.00 0.00 0.00 69 1010.8
20260503025502 55 321 0.9 5.2 0.00 0.00 0.00 69 1010.8
20260503025002 56 305 0.9 4.3 0.00 0.00 0.00 69 1010.8
20260503024503 56 304 0.9 4.3 0.00 0.00 0.00 68 1010.7
20260503024003 56 333 0.9 4.3 0.00 0.00 0.00 68 1010.6
20260503023502 56 11 0.9 5.2 0.00 0.00 0.00 68 1010.5
20260503023002 56 269 0.9 5.2 0.00 0.00 0.00 67 1010.6
20260503022502 56 290 0.9 5.2 0.00 0.00 0.00 67 1010.5
20260503022003 57 279 0.9 4.3 0.00 0.00 0.00 66 1010.6
20260503021003 57 318 1.7 7.0 0.00 0.00 0.00 66 1010.5
20260503020503 58 297 1.7 9.6 0.00 0.00 0.00 65 1010.5
20260503020003 58 245 1.7 9.6 0.00 0.00 0.00 64 1010.5
20260503015504 59 278 1.7 7.0 0.00 0.00 0.00 63 1010.6
20260503015003 59 306 1.7 4.3 0.00 0.00 0.00 62 1010.6
20260503014004 60 279 1.7 6.1 0.00 0.00 0.00 61 1010.6
20260503013503 61 248 1.7 6.1 0.00 0.00 0.00 60 1010.6
20260503013003 61 329 1.7 5.2 0.00 0.00 0.00 59 1010.4
20260503011503 64 216 0.9 5.2 0.00 0.00 0.00 56 1010.6
20260503011003 64 305 1.7 5.2 0.00 0.00 0.00 57 1010.5
20260503010502 64 253 0.9 5.2 0.00 0.00 0.00 55 1010.6
20260503010006 64 213 0.9 4.3 0.00 0.00 0.00 56 1010.6
20260503005003 64 257 1.7 6.1 0.00 0.00 0.00 55 1010.6
20260503004504 65 214 1.7 5.2 0.00 0.00 0.00 55 1010.6
20260503004004 65 209 1.7 5.2 0.00 0.00 0.00 55 1010.6
20260503003005 65 255 1.7 6.1 0.00 0.00 0.00 54 1010.6
20260503002504 65 291 1.7 6.1 0.00 0.00 0.00 55 1010.6
20260503002004 66 301 1.7 6.1 0.00 0.00 0.00 54 1010.6
20260503001504 66 217 1.7 4.3 0.00 0.00 0.00 53 1010.6
20260503001004 66 258 0.9 4.3 0.00 0.00 0.00 54 1010.6
20260503000504 66 204 1.7 4.3 0.00 0.00 0.00 54 1010.5
20260503000004 66 278 0.9 4.3 0.00 0.00 0.00 53 1010.5
20260502235004 66 165 1.7 4.3 0.00 0.00 0.00 54 1010.6
20260502234504 66 131 1.7 4.3 0.00 0.00 0.00 54 1010.5
20260502234004 67 135 0.9 6.1 0.00 0.00 0.00 55 1010.5
20260502233503 67 343 0.9 4.3 0.00 0.00 0.00 54 1010.6
20260502233003 66 333 0.9 6.1 0.00 0.00 0.00 55 1010.8
20260502232503 66 129 1.7 6.1 0.00 0.00 0.00 55 1010.8
20260502232002 66 281 1.7 5.2 0.00 0.00 0.00 55 1010.9
20260502231502 66 143 1.7 6.1 0.00 0.00 0.00 55 1011.1
20260502231003 67 243 1.7 6.1 0.00 0.00 0.00 54 1011.0
20260502230005 68 243 1.7 4.3 0.00 0.00 0.00 54 1011.1
20260502225503 67 238 0.9 7.0 0.00 0.00 0.00 53 1011.1
20260502225002 67 259 0.9 5.2 0.00 0.00 0.00 55 1011.2
20260502224504 66 101 1.7 4.3 0.00 0.00 0.00 54 1011.3
20260502223502 67 134 2.6 7.0 0.00 0.00 0.00 53 1011.5
20260502223002 67 130 1.7 6.1 0.00 0.00 0.00 53 1011.6
20260502222503 67 128 0.9 4.3 0.00 0.00 0.00 54 1011.6
20260502222003 67 251 0.9 4.3 0.00 0.00 0.00 53 1011.7
20260502221002 67 169 0.9 3.5 0.00 0.00 0.00 55 1012.0
20260502220503 67 217 0.9 4.3 0.00 0.00 0.00 55 1012.0
20260502220003 66 259 1.7 3.5 0.00 0.00 0.00 57 1012.0
20260502215503 67 132 0.9 4.3 0.00 0.00 0.00 55 1012.2
20260502215003 67 245 0.9 4.3 0.00 0.00 0.00 56 1012.3
20260502214503 66 152 0.9 3.5 0.00 0.00 0.00 59 1012.4
20260502214004 65 266 0.9 2.6 0.00 0.00 0.00 58 1012.5
20260502213503 65 196 0.9 2.6 0.00 0.00 0.00 59 1012.6
20260502213002 64 210 0.9 4.3 0.00 0.00 0.00 60 1012.7
20260502212502 64 98 0.9 4.3 0.00 0.00 0.00 60 1012.9